Tracking 19906 objects as of 24-Oct-2019
HD Live streaming from Space Station
objects crossing your sky now

SL-24 DEB


SL-24 DEB is no longer on orbit


NORAD ID: 33317
Int'l Code: 2008-040F
Perigee: N/A
Apogee: N/A
Inclination: N/A
Period: N/A
Semi major axis: N/A
RCS: N/A
Launch date: August 29, 2008
Source: Commonwealth of Independent States (former USSR) (CIS)
Launch site: TYURATAM MISSILE AND SPACE COMPLEX (TTMTR)
Decay date: 2013-07-07

Note: This is SATELLITE DEBRIS
aabbcc
Your satellite tracking list
Your tracking list is empty




NASA's NSSDC Master Catalog

Two Line Element Set (TLE):
1 33317U 08040F   13188.20663389  .29003152  28963-5  36944-2 0  9990
2 33317 097.9918 346.1046 0015616 270.8291 089.3035 16.35536981266003
Source of the keplerian elements: AFSPC